Location: Cahas Mountain Overlook
(37.0833°N, 80.1000°W)
Time: 13:46:22
(UTC-05:00)

S-56A Canister/Altair - Pass Details

Date: 30 November 2023
Orbit: 639 x 2488 km, 38.9° (Epoch: 03 March)

Event Time Altitude Azimuth Distance (km) Brightness Sun altitude
Rises 21:17:00 0° 267° (W) 4,231 11.9 -49.9°
Reaches altitude 10° 21:22:18 10° 238° (WSW) 3,701 11.3 -50.9°
Maximum altitude 21:25:25 12° 219° (SW) 3,792 11.2 -51.5°
Enters shadow 21:28:07 11° 204° (SSW) 4,087 11.2 -52.1°
Drops below altitude 10° 21:28:53 10° 200° (SSW) 4,199 - -52.2°
Sets 21:36:15 0° 174° (S) 5,655 - -53.6°
